{"data":{"norad_id":61015,"intl_designator":"2024-159E","name":"GEESAT-3 05","alt_names":[],"object_type":"PAYLOAD","status":"ACTIVE","operator":null,"country":"PRC","launch_date":"2024-09-05","launch_site_code":"TAISC","launch_vehicle":null,"mission":null,"orbit_class":"UNKNOWN","rcs_meters":null,"size_class":null,"mass_kg":null,"dimensions":null,"purposes":[],"wikipedia_slug":null,"has_3d_model":false,"image_url":null,"decayed_at":null,"tle_current":{"epoch":"2026-05-25T04:31:16.547808Z","epoch_age_seconds":52798,"freshness":"FRESH","line1":"1 61015U 24159E   26145.18838597  .00001799  00000+0  24002-3 0  9997","line2":"2 61015  50.0018 189.9842 0013773 325.8068  34.1982 14.84121176 93366","mean_motion":14.84121176,"eccentricity":0.0013773,"inclination_deg":50.0018,"raan_deg":189.9842,"arg_perigee_deg":325.8068,"mean_anomaly_deg":34.1982,"bstar":0.00024002,"rev_number":9336,"period_min":97.02711768328,"perigee_km":606.71219547632,"apogee_km":625.97919751209,"semimajor_km":6994.4826964942,"source":"CELESTRAK","updated_at":"2026-05-25T13:38:02.276954Z"}}}